Погода в Ошаве

Канада     43°54′04″N   78°51′10″W
темп.,
°C
ветер,
м/с
пор.,
м/с
влажн.,
%
обл.,
%
осадки,
мм/ч
давл.,
гПа
погр.,
м
18 мая, вт
вт1823:00+13сз22795 0.0 102513
02:00+11з118492 0.0 102510
05:00+11зсз22825 0.0 102622
08:00+15зсз23685 0.0 1027140
11:00+21з34515 0.0 1027905
14:00+23юз464881 0.0 10251432
17:00+20ююз246221 0.0 1025188
20:00+18ссз22745 0.1 102523
19 мая, ср
ср1923:00+14ссз33795 0.0 102638
02:00+13сз22840 0.0 102624
05:00+13с218796 0.0 102611
08:00+17ю1177100 0.0 1028108
11:00+21ю3363100 0.0 1028550
14:00+21ююз3451100 0.0 1027516
17:00+22ююз3452100 0.0 1026509
20:00+17ю2272100 0.0 102621
20 мая, чт
чт2023:00+15ю1172100 0.0 102613
02:00+15ююв1175100 0.0 102524
05:00+15ююв2278100 0.0 102630
08:00+14ю2686100 0.1 1026158
11:00+17ююз3488100 0.4 1026200
14:00+23юз4669100 1.1 10251048
17:00+24з4672100 1.6 10241030
20:00+20зсз1286100 2.1 102513
21 мая, пт
пт2123:00+17ююз1295100 0.3 102619
02:00+17ю1195100 0.3 102512
05:00+17ю1195100 0.0 102517
08:00+18юз2492100 0.1 1026163
11:00+23юз3473100 0.0 1026648
14:00+22ю2378100 1.4 1025472
17:00+23ю4477100 0.9 1023392
20:00+18ю2297100 6.4 102392
22 мая, сб
сб2223:00+16ююз2599100 4.2 1023209
02:00+16ю2899100 5.9 1021247
05:00+16юз2599100 0.2 1019233
08:00+19зсз2694100 0.3 1019352
11:00+17сз4795100 0.3 1019318
14:00+19ссз578799 0.3 1018573
17:00+21ссз587956 0.1 1017810
20:00+18сз478577 0.1 1018266